Location: Newark
(21.1200°N, 73.4000°E)
Time: 15:39:12
(UTC+00:00)

Explorer 11/Cluster Stage 4 - Pass Details

Date: 23 January 2020
Orbit: 467 x 1259 km, 28.8° (Epoch: 23 February)

Event Time Altitude Azimuth Distance (km) Brightness Sun altitude
Rises 08:44:39 0° 246° (WSW) 4,181 10.8 44.2°
Reaches altitude 10° 08:47:35 10° 246° (WSW) 3,228 10.5 43.8°
Maximum altitude 08:55:54 88° 159° (SSE) 1,219 8.4 42.8°
Drops below altitude 10° 09:03:29 10° 70° (ENE) 2,963 9.3 41.9°
Sets 09:06:05 0° 70° (ENE) 3,824 9.7 41.5°
